| time (UTC) | temp C | wind direction | speed KPH | gust KPH | rain 1hr cm | rain 24hr cm | rain mn cm | humidity % | barometer mb |
| 20260504130220 | 10 | 232 | 3.2 | 12.9 | 0.00 | 0.00 | 0.00 | 69 | 1005.8 |
| 20260504120144 | 10 | 157 | 3.2 | 16.1 | 0.00 | 0.00 | 0.00 | 74 | 1005.4 |
| 20260504110110 | 8 | 219 | 4.8 | 11.3 | 0.00 | 0.00 | 0.00 | 79 | 1006.1 |
| 20260504081651 | 8 | 205 | 3.2 | 6.4 | 0.00 | 0.00 | 0.00 | 73 | 1006.8 |
| 20260504080650 | 8 | 179 | 3.2 | 4.8 | 0.00 | 0.00 | 0.00 | 72 | 1006.8 |
| 20260504050504 | 7 | 96 | 0.0 | 1.6 | 0.00 | 0.00 | 0.00 | 61 | 1007.1 |
| 20260504045504 | 7 | 110 | 0.0 | 1.6 | 0.00 | 0.00 | 0.00 | 61 | 1007.5 |
| 20260504044504 | 6 | 117 | 1.6 | 1.6 | 0.00 | 0.00 | 0.00 | 63 | 1007.5 |
| 20260504043503 | 6 | 125 | 0.0 | 1.6 | 0.00 | 0.00 | 0.00 | 63 | 1007.5 |
| 20260504042502 | 6 | 116 | 1.6 | 3.2 | 0.00 | 0.00 | 0.00 | 64 | 1007.8 |
| 20260504041501 | 6 | 116 | 1.6 | 3.2 | 0.00 | 0.00 | 0.00 | 64 | 1007.8 |
| 20260504040501 | 6 | 122 | 1.6 | 1.6 | 0.00 | 0.00 | 0.00 | 65 | 1007.8 |
| 20260504035500 | 5 | 124 | 1.6 | 1.6 | 0.00 | 0.00 | 0.00 | 69 | 1007.8 |
| 20260504034459 | 5 | 123 | 1.6 | 1.6 | 0.00 | 0.00 | 0.00 | 70 | 1007.8 |
| 20260504033459 | 5 | 122 | 1.6 | 1.6 | 0.00 | 0.00 | 0.00 | 69 | 1007.8 |
| 20260504032427 | 5 | 120 | 1.6 | 1.6 | 0.00 | 0.00 | 0.00 | 69 | 1007.8 |
| 20260504031426 | 5 | 127 | 1.6 | 1.6 | 0.00 | 0.00 | 0.00 | 69 | 1007.8 |
| 20260504030425 | 5 | 131 | 1.6 | 3.2 | 0.00 | 0.00 | 0.00 | 68 | 1007.8 |
| 20260504025425 | 5 | 139 | 1.6 | 3.2 | 0.00 | 0.00 | 0.00 | 69 | 1007.8 |
| 20260504024322 | 5 | 136 | 1.6 | 1.6 | 0.00 | 0.00 | 0.00 | 69 | 1007.8 |
| 20260504023321 | 6 | 125 | 0.0 | 3.2 | 0.00 | 0.00 | 0.00 | 69 | 1007.8 |
| 20260504022321 | 6 | 156 | 0.0 | 3.2 | 0.00 | 0.00 | 0.00 | 64 | 1008.1 |
| 20260504021320 | 7 | 137 | 1.6 | 4.8 | 0.00 | 0.03 | 0.00 | 60 | 1008.1 |
| 20260504020320 | 6 | 147 | 1.6 | 4.8 | 0.00 | 0.03 | 0.00 | 60 | 1008.1 |
| 20260504015319 | 6 | 162 | 1.6 | 3.2 | 0.00 | 0.03 | 0.00 | 62 | 1008.1 |
| 20260504014318 | 6 | 155 | 1.6 | 3.2 | 0.00 | 0.03 | 0.00 | 66 | 1008.1 |
| 20260504013318 | 5 | 131 | 1.6 | 1.6 | 0.00 | 0.03 | 0.00 | 69 | 1008.1 |
| 20260504012317 | 6 | 136 | 0.0 | 1.6 | 0.00 | 0.03 | 0.00 | 67 | 1008.1 |
| 20260504011214 | 6 | 129 | 1.6 | 1.6 | 0.00 | 0.03 | 0.00 | 67 | 1007.8 |
| 20260504010142 | 6 | 135 | 1.6 | 1.6 | 0.00 | 0.05 | 0.00 | 66 | 1007.8 |
| 20260504005142 | 7 | 130 | 1.6 | 1.6 | 0.00 | 0.05 | 0.00 | 64 | 1007.8 |
| 20260504004110 | 7 | 138 | 1.6 | 1.6 | 0.00 | 0.05 | 0.00 | 63 | 1007.8 |
| 20260504003110 | 7 | 134 | 1.6 | 3.2 | 0.00 | 0.05 | 0.00 | 59 | 1007.8 |
| 20260504002109 | 8 | 136 | 1.6 | 3.2 | 0.00 | 0.05 | 0.00 | 57 | 1007.8 |
| 20260504001108 | 8 | 134 | 0.0 | 1.6 | 0.00 | 0.08 | 0.00 | 56 | 1007.8 |
| 20260504000108 | 10 | 142 | 1.6 | 1.6 | 0.00 | 0.08 | 0.00 | 55 | 1007.5 |
| 20260503235107 | 11 | 148 | 0.0 | 0.0 | 0.00 | 0.08 | 0.00 | 50 | 1007.5 |
| 20260503234106 | 12 | 152 | 0.0 | 1.6 | 0.00 | 0.08 | 0.00 | 44 | 1007.5 |
| 20260503233106 | 12 | 153 | 0.0 | 4.8 | 0.00 | 0.08 | 0.00 | 42 | 1007.5 |
| 20260503232105 | 13 | 223 | 1.6 | 4.8 | 0.00 | 0.08 | 0.00 | 41 | 1007.5 |
| 20260503231104 | 13 | 158 | 1.6 | 3.2 | 0.00 | 0.08 | 0.00 | 40 | 1007.5 |
| 20260503230104 | 12 | 195 | 1.6 | 3.2 | 0.00 | 0.08 | 0.00 | 44 | 1007.5 |
| 20260503225103 | 11 | 115 | 0.0 | 1.6 | 0.00 | 0.10 | 0.00 | 46 | 1007.5 |
| 20260503224102 | 11 | 132 | 0.0 | 3.2 | 0.00 | 0.10 | 0.00 | 45 | 1007.5 |
| 20260503223030 | 11 | 297 | 0.0 | 3.2 | 0.00 | 0.10 | 0.00 | 45 | 1007.5 |
| 20260503222029 | 10 | 281 | 0.0 | 1.6 | 0.00 | 0.10 | 0.00 | 46 | 1007.5 |
| 20260503221029 | 11 | 278 | 0.0 | 1.6 | 0.00 | 0.10 | 0.00 | 46 | 1007.5 |
| 20260503220028 | 10 | 278 | 1.6 | 1.6 | 0.00 | 0.10 | 0.00 | 46 | 1007.5 |
| 20260503215027 | 11 | 4 | 1.6 | 1.6 | 0.00 | 0.13 | 0.00 | 49 | 1007.5 |
| 20260503214026 | 11 | 335 | 0.0 | 3.2 | 0.00 | 0.13 | 0.00 | 47 | 1007.5 |
| 20260503213025 | 11 | 328 | 1.6 | 4.8 | 0.00 | 0.13 | 0.00 | 48 | 1007.5 |
| 20260503212025 | 11 | 354 | 3.2 | 4.8 | 0.00 | 0.13 | 0.00 | 45 | 1007.5 |
| 20260503211025 | 11 | 44 | 0.0 | 3.2 | 0.00 | 0.13 | 0.00 | 47 | 1007.5 |
| 20260503210024 | 11 | 347 | 1.6 | 3.2 | 0.00 | 0.13 | 0.00 | 48 | 1007.5 |
| 20260503204850 | 11 | 70 | 1.6 | 3.2 | 0.00 | 0.13 | 0.00 | 45 | 1007.5 |
| 20260503203818 | 10 | 300 | 1.6 | 3.2 | 0.00 | 0.13 | 0.00 | 49 | 1007.5 |
| 20260503202746 | 10 | 43 | 1.6 | 1.6 | 0.00 | 0.13 | 0.00 | 48 | 1007.5 |
| 20260503201745 | 10 | 11 | 1.6 | 1.6 | 0.00 | 0.13 | 0.00 | 50 | 1007.8 |
| 20260503200745 | 10 | 13 | 1.6 | 3.2 | 0.00 | 0.13 | 0.00 | 50 | 1007.8 |
| 20260503195744 | 10 | 5 | 1.6 | 4.8 | 0.00 | 0.13 | 0.00 | 51 | 1007.8 |
| 20260503194744 | 10 | 256 | 1.6 | 4.8 | 0.00 | 0.13 | 0.00 | 49 | 1007.8 |
| 20260503193712 | 10 | 308 | 1.6 | 1.6 | 0.00 | 0.13 | 0.00 | 50 | 1008.1 |
| 20260503192711 | 10 | 288 | 0.0 | 3.2 | 0.00 | 0.13 | 0.00 | 53 | 1008.1 |
| 20260503191710 | 10 | 289 | 0.0 | 8.0 | 0.00 | 0.13 | 0.00 | 52 | 1008.1 |
| 20260503190710 | 9 | 295 | 1.6 | 8.0 | 0.00 | 0.13 | 0.00 | 54 | 1008.5 |
| 20260503185709 | 9 | 341 | 1.6 | 4.8 | 0.00 | 0.13 | 0.00 | 52 | 1008.5 |
| 20260503184708 | 9 | 6 | 1.6 | 4.8 | 0.00 | 0.13 | 0.00 | 53 | 1008.5 |
| 20260503183637 | 9 | 352 | 3.2 | 4.8 | 0.00 | 0.13 | 0.00 | 54 | 1008.5 |
| 20260503182636 | 9 | 287 | 1.6 | 4.8 | 0.00 | 0.13 | 0.00 | 54 | 1008.8 |
| 20260503181605 | 9 | 287 | 3.2 | 4.8 | 0.00 | 0.13 | 0.00 | 57 | 1008.8 |
| 20260503180604 | 8 | 288 | 0.0 | 4.8 | 0.00 | 0.13 | 0.00 | 54 | 1008.8 |
| 20260503175604 | 9 | 312 | 1.6 | 9.7 | 0.00 | 0.13 | 0.00 | 54 | 1008.8 |
| 20260503174532 | 9 | 353 | 3.2 | 9.7 | 0.00 | 0.13 | 0.00 | 54 | 1008.8 |
| 20260503173531 | 8 | 0 | 3.2 | 8.0 | 0.00 | 0.13 | 0.00 | 57 | 1008.8 |
| 20260503172459 | 8 | 326 | 3.2 | 11.3 | 0.00 | 0.13 | 0.00 | 56 | 1008.8 |
| 20260503171459 | 8 | 341 | 4.8 | 11.3 | 0.00 | 0.13 | 0.00 | 56 | 1009.1 |
| 20260503170458 | 8 | 4 | 6.4 | 11.3 | 0.00 | 0.13 | 0.00 | 58 | 1009.1 |
| 20260503150450 | 8 | 331 | 12.9 | 17.7 | 0.00 | 0.13 | 0.00 | 64 | 1010.2 |